| time (UTC) | temp C | wind direction | speed KPH | gust KPH | rain 1hr cm | rain 24hr cm | rain mn cm | humidity % | barometer mb |
| 20260507070008 | 7 | 290 | 4.8 | 12.9 | 0.00 | 1.78 | 0.20 | 97 | 1005.1 |
| 20260507065404 | 7 | 289 | 4.8 | 9.7 | 0.00 | 1.78 | 0.20 | 98 | 1005.1 |
| 20260507064505 | 7 | 284 | 4.8 | 8.0 | 0.00 | 1.78 | 0.20 | 99 | 1005.1 |
| 20260507063604 | 7 | 305 | 4.8 | 9.7 | 0.00 | 1.78 | 0.20 | 99 | 1005.1 |
| 20260507062704 | 8 | 307 | 3.2 | 9.7 | 0.00 | 1.78 | 0.20 | 99 | 1005.1 |
| 20260507061804 | 8 | 315 | 3.2 | 9.7 | 0.00 | 1.78 | 0.20 | 99 | 1005.1 |
| 20260507060904 | 8 | 305 | 3.2 | 8.0 | 0.00 | 1.78 | 0.20 | 99 | 1005.1 |
| 20260507060004 | 8 | 311 | 3.2 | 6.4 | 0.00 | 1.78 | 0.20 | 99 | 1005.1 |
| 20260507055404 | 8 | 286 | 3.2 | 8.0 | 0.00 | 1.78 | 0.20 | 99 | 1005.1 |
| 20260507054505 | 8 | 288 | 3.2 | 8.0 | 0.05 | 1.78 | 0.20 | 99 | 1005.1 |
| 20260507053603 | 8 | 311 | 3.2 | 8.0 | 0.05 | 1.78 | 0.20 | 99 | 1005.1 |
| 20260507052705 | 8 | 326 | 4.8 | 9.7 | 0.05 | 1.78 | 0.20 | 99 | 1005.1 |
| 20260507051804 | 8 | 319 | 3.2 | 9.7 | 0.05 | 1.78 | 0.20 | 99 | 1005.1 |
| 20260507050903 | 8 | 319 | 3.2 | 11.3 | 0.20 | 1.78 | 0.20 | 99 | 1005.1 |
| 20260507050004 | 8 | 312 | 4.8 | 14.5 | 0.20 | 1.78 | 0.20 | 99 | 1005.1 |
| 20260507045404 | 8 | 311 | 3.2 | 14.5 | 0.20 | 1.78 | 0.20 | 99 | 1005.1 |
| 20260507044525 | 8 | 307 | 4.8 | 9.7 | 0.18 | 1.73 | 0.18 | 99 | 1005.1 |
| 20260507043605 | 9 | 311 | 4.8 | 14.5 | 0.15 | 1.73 | 0.15 | 99 | 1005.1 |
| 20260507042704 | 9 | 307 | 4.8 | 11.3 | 0.15 | 1.73 | 0.15 | 99 | 1005.1 |
| 20260507041825 | 10 | 312 | 4.8 | 12.9 | 0.18 | 1.73 | 0.15 | 99 | 1005.1 |
| 20260507040904 | 10 | 295 | 4.8 | 9.7 | 0.10 | 1.57 | 0.00 | 99 | 1005.1 |
| 20260507040004 | 10 | 302 | 4.8 | 9.7 | 0.10 | 1.57 | 0.00 | 99 | 1005.1 |
| 20260507035403 | 10 | 316 | 4.8 | 12.9 | 0.10 | 1.57 | 1.57 | 99 | 1005.1 |
| 20260507034504 | 11 | 327 | 4.8 | 12.9 | 0.10 | 1.57 | 1.57 | 99 | 1005.1 |
| 20260507033626 | 11 | 312 | 3.2 | 8.0 | 0.10 | 1.57 | 1.57 | 99 | 1005.1 |
| 20260507032705 | 11 | 308 | 4.8 | 12.9 | 0.10 | 1.57 | 1.55 | 99 | 1005.1 |
| 20260507031803 | 11 | 293 | 4.8 | 9.7 | 0.10 | 1.55 | 1.55 | 99 | 1005.1 |
| 20260507030903 | 12 | 312 | 4.8 | 9.7 | 0.05 | 1.47 | 1.50 | 99 | 1005.1 |
| 20260507030004 | 12 | 280 | 1.6 | 11.3 | 0.05 | 1.47 | 1.47 | 99 | 1005.1 |
| 20260507025425 | 12 | 265 | 1.6 | 6.4 | 0.03 | 1.47 | 1.47 | 99 | 1005.1 |
| 20260507024525 | 12 | 201 | 1.6 | 3.2 | 0.00 | 1.45 | 1.45 | 99 | 1005.1 |
| 20260507023625 | 12 | 273 | 1.6 | 4.8 | 0.00 | 1.45 | 1.45 | 99 | 1005.1 |
| 20260507022705 | 12 | 203 | 3.2 | 8.0 | 0.00 | 1.45 | 1.45 | 99 | 1005.1 |
| 20260507021805 | 12 | 165 | 4.8 | 9.7 | 0.00 | 1.45 | 1.45 | 99 | 1005.1 |
| 20260507020925 | 12 | 154 | 3.2 | 9.7 | 0.00 | 1.45 | 1.45 | 99 | 1005.1 |
| 20260507020004 | 12 | 307 | 1.6 | 4.8 | 0.00 | 1.45 | 1.45 | 99 | 1005.1 |
| 20260507015403 | 12 | 203 | 4.8 | 14.5 | 0.00 | 1.45 | 1.45 | 99 | 1005.1 |
| 20260507014504 | 12 | 169 | 11.3 | 19.3 | 0.00 | 1.45 | 1.45 | 99 | 1005.1 |
| 20260507013624 | 12 | 177 | 8.0 | 19.3 | 0.00 | 1.45 | 1.45 | 99 | 1005.1 |
| 20260507012704 | 12 | 166 | 9.7 | 19.3 | 0.00 | 1.45 | 1.45 | 99 | 1005.1 |
| 20260507011804 | 12 | 168 | 14.5 | 20.9 | 0.00 | 1.45 | 1.45 | 99 | 1005.1 |
| 20260507010903 | 12 | 164 | 12.9 | 25.7 | 0.00 | 1.45 | 1.45 | 99 | 1005.1 |
| 20260507010005 | 12 | 170 | 9.7 | 25.7 | 0.00 | 1.57 | 1.45 | 99 | 1005.1 |
| 20260507005404 | 12 | 167 | 11.3 | 22.5 | 0.00 | 1.57 | 1.45 | 99 | 1005.1 |
| 20260507004504 | 12 | 159 | 12.9 | 22.5 | 0.00 | 1.57 | 1.45 | 99 | 1005.1 |
| 20260507003604 | 12 | 165 | 12.9 | 29.0 | 0.00 | 1.57 | 1.45 | 99 | 1005.1 |
| 20260507002724 | 12 | 166 | 16.1 | 29.0 | 0.00 | 1.57 | 1.45 | 99 | 1005.1 |
| 20260507001803 | 12 | 165 | 12.9 | 25.7 | 0.00 | 1.57 | 1.45 | 99 | 1005.1 |
| 20260507000904 | 12 | 162 | 12.9 | 24.1 | 0.00 | 1.57 | 1.45 | 99 | 1005.1 |
| 20260507000004 | 12 | 157 | 12.9 | 20.9 | 0.00 | 1.57 | 1.45 | 99 | 1005.1 |
| 20260506235424 | 12 | 158 | 12.9 | 22.5 | 0.00 | 1.57 | 1.45 | 99 | 1005.1 |
| 20260506234504 | 12 | 164 | 11.3 | 22.5 | 0.00 | 1.57 | 1.45 | 99 | 1005.1 |
| 20260506233605 | 12 | 164 | 12.9 | 22.5 | 0.00 | 1.57 | 1.45 | 99 | 1005.1 |
| 20260506232703 | 12 | 153 | 11.3 | 25.7 | 0.00 | 1.68 | 1.45 | 99 | 1005.1 |
| 20260506231803 | 12 | 150 | 11.3 | 17.7 | 0.00 | 1.68 | 1.45 | 99 | 1005.1 |
| 20260506230924 | 12 | 158 | 11.3 | 19.3 | 0.03 | 1.68 | 1.45 | 99 | 1005.1 |
| 20260506230025 | 12 | 158 | 9.7 | 19.3 | 0.05 | 1.68 | 1.45 | 99 | 1005.1 |
| 20260506225405 | 12 | 162 | 9.7 | 17.7 | 0.05 | 1.73 | 1.45 | 99 | 1005.1 |
| 20260506224503 | 12 | 151 | 8.0 | 17.7 | 0.05 | 1.91 | 1.45 | 99 | 1005.1 |
| 20260506223603 | 12 | 157 | 8.0 | 20.9 | 0.10 | 1.93 | 1.45 | 99 | 1005.1 |
| 20260506222703 | 12 | 158 | 8.0 | 19.3 | 0.10 | 1.91 | 1.42 | 99 | 1005.1 |
| 20260506221803 | 12 | 157 | 8.0 | 16.1 | 0.15 | 1.91 | 1.42 | 99 | 1005.1 |
| 20260506220903 | 12 | 155 | 6.4 | 12.9 | 0.25 | 1.88 | 1.42 | 99 | 1005.1 |
| 20260506220003 | 12 | 157 | 4.8 | 11.3 | 0.23 | 1.88 | 1.40 | 99 | 1005.1 |
| 20260506215405 | 12 | 134 | 6.4 | 12.9 | 0.41 | 1.88 | 1.40 | 99 | 1005.1 |
| 20260506214505 | 12 | 151 | 4.8 | 12.9 | 0.46 | 1.88 | 1.40 | 99 | 1005.1 |
| 20260506213603 | 12 | 149 | 4.8 | 9.7 | 0.46 | 1.83 | 1.35 | 99 | 1005.1 |
| 20260506212703 | 12 | 147 | 6.4 | 11.3 | 0.51 | 1.78 | 1.32 | 99 | 1005.1 |
| 20260506211804 | 12 | 153 | 6.4 | 11.3 | 0.48 | 1.75 | 1.27 | 99 | 1005.1 |
| 20260506210904 | 12 | 163 | 6.4 | 12.9 | 0.43 | 1.68 | 1.19 | 99 | 1005.1 |
| 20260506210024 | 12 | 155 | 6.4 | 16.1 | 0.48 | 1.65 | 1.17 | 99 | 1005.1 |
| 20260506205403 | 12 | 161 | 8.0 | 16.1 | 0.38 | 1.47 | 0.99 | 99 | 1005.1 |
| 20260506204524 | 12 | 158 | 9.7 | 16.1 | 0.30 | 1.42 | 0.94 | 99 | 1005.1 |
| 20260506203603 | 12 | 155 | 9.7 | 16.1 | 0.28 | 1.37 | 0.89 | 99 | 1005.1 |
| 20260506202703 | 12 | 156 | 9.7 | 16.1 | 0.28 | 1.32 | 0.81 | 99 | 1005.1 |
| 20260506201824 | 12 | 157 | 9.7 | 14.5 | 0.25 | 1.27 | 0.79 | 99 | 1005.1 |
| 20260506200903 | 12 | 161 | 8.0 | 17.7 | 0.25 | 1.24 | 0.74 | 99 | 1005.1 |
| 20260506200005 | 12 | 173 | 8.0 | 17.7 | 0.25 | 1.19 | 0.69 | 99 | 1005.1 |
| 20260506195403 | 12 | 163 | 8.0 | 16.1 | 0.20 | 1.12 | 0.61 | 99 | 1005.1 |
| 20260506194503 | 12 | 166 | 9.7 | 20.9 | 0.33 | 1.12 | 0.61 | 99 | 1005.1 |
| 20260506193603 | 12 | 160 | 9.7 | 17.7 | 0.46 | 1.12 | 0.61 | 99 | 1005.1 |
| 20260506192704 | 13 | 164 | 9.7 | 19.3 | 0.46 | 1.07 | 0.53 | 99 | 1005.1 |
| 20260506191803 | 13 | 160 | 11.3 | 22.5 | 0.46 | 1.02 | 0.51 | 99 | 1005.1 |
| 20260506190924 | 13 | 152 | 9.7 | 17.7 | 0.46 | 0.99 | 0.48 | 99 | 1005.1 |
| 20260506190004 | 13 | 135 | 6.4 | 12.9 | 0.46 | 0.97 | 0.46 | 99 | 1005.1 |
| 20260506185403 | 13 | 130 | 4.8 | 12.9 | 0.41 | 0.94 | 0.43 | 100 | 1005.1 |
| 20260506184503 | 13 | 199 | 3.2 | 8.0 | 0.28 | 0.81 | 0.28 | 98 | 1005.1 |
| 20260506183604 | 13 | 175 | 6.4 | 12.9 | 0.13 | 0.66 | 0.13 | 97 | 1005.1 |
| 20260506182703 | 13 | 153 | 6.4 | 16.1 | 0.10 | 0.61 | 0.10 | 95 | 1005.1 |
| 20260506181824 | 14 | 149 | 6.4 | 11.3 | 0.05 | 0.58 | 0.08 | 95 | 1005.1 |
| 20260506180924 | 14 | 129 | 6.4 | 14.5 | 0.05 | 0.56 | 0.03 | 94 | 1005.1 |
| 20260506180004 | 15 | 144 | 6.4 | 12.9 | 0.00 | 0.56 | 0.03 | 91 | 1005.1 |
| 20260506175403 | 15 | 148 | 9.7 | 19.3 | 0.00 | 0.56 | 0.00 | 90 | 1005.1 |
| 20260506174503 | 15 | 125 | 8.0 | 19.3 | 0.00 | 0.53 | 0.00 | 89 | 1005.1 |
| 20260506173603 | 15 | 120 | 6.4 | 14.5 | 0.00 | 0.53 | 0.00 | 90 | 1005.1 |
| 20260506172724 | 15 | 122 | 8.0 | 16.1 | 0.00 | 0.53 | 0.00 | 90 | 1005.1 |
| 20260506171803 | 15 | 136 | 9.7 | 19.3 | 0.00 | 0.53 | 0.00 | 89 | 1005.1 |
| 20260506170903 | 15 | 142 | 8.0 | 17.7 | 0.00 | 0.53 | 0.00 | 88 | 1005.1 |
| 20260506170003 | 15 | 127 | 8.0 | 19.3 | 0.00 | 0.53 | 0.00 | 88 | 1005.1 |
| 20260506165404 | 15 | 137 | 8.0 | 19.3 | 0.00 | 0.53 | 0.00 | 88 | 1005.1 |
| 20260506164503 | 15 | 128 | 8.0 | 19.3 | 0.00 | 0.53 | 0.00 | 88 | 1005.1 |
| 20260506163603 | 15 | 143 | 12.9 | 20.9 | 0.00 | 0.53 | 0.00 | 88 | 1005.1 |
| 20260506162703 | 15 | 129 | 9.7 | 20.9 | 0.00 | 0.53 | 0.00 | 87 | 1005.1 |
| 20260506161803 | 15 | 146 | 11.3 | 20.9 | 0.00 | 0.53 | 0.00 | 88 | 1005.1 |
| 20260506160904 | 15 | 140 | 8.0 | 14.5 | 0.00 | 0.53 | 0.00 | 88 | 1005.1 |
| 20260506160026 | 15 | 142 | 9.7 | 17.7 | 0.00 | 0.53 | 0.00 | 88 | 1005.1 |
| 20260506155403 | 15 | 153 | 8.0 | 17.7 | 0.00 | 0.53 | 0.00 | 88 | 1005.1 |
| 20260506154524 | 15 | 131 | 9.7 | 19.3 | 0.00 | 0.53 | 0.00 | 88 | 1005.1 |
| 20260506153603 | 15 | 140 | 9.7 | 16.1 | 0.00 | 0.53 | 0.00 | 88 | 1005.1 |
| 20260506152704 | 15 | 157 | 11.3 | 17.7 | 0.00 | 0.53 | 0.00 | 88 | 1005.1 |
| 20260506151803 | 15 | 143 | 11.3 | 17.7 | 0.00 | 0.53 | 0.00 | 88 | 1005.1 |
| 20260506150903 | 15 | 150 | 9.7 | 16.1 | 0.00 | 0.53 | 0.00 | 87 | 1005.1 |
| 20260506150024 | 15 | 153 | 8.0 | 14.5 | 0.00 | 0.53 | 0.00 | 88 | 1005.1 |
| 20260506145403 | 14 | 160 | 8.0 | 16.1 | 0.00 | 0.53 | 0.00 | 89 | 1005.1 |
| 20260506144503 | 14 | 156 | 8.0 | 16.1 | 0.00 | 0.53 | 0.00 | 89 | 1005.1 |
| 20260506143603 | 14 | 154 | 6.4 | 11.3 | 0.00 | 0.53 | 0.00 | 88 | 1005.1 |
| 20260506142724 | 13 | 146 | 4.8 | 12.9 | 0.00 | 0.53 | 0.00 | 88 | 1005.1 |
| 20260506141803 | 13 | 138 | 6.4 | 12.9 | 0.00 | 0.53 | 0.00 | 89 | 1005.1 |
| 20260506140903 | 13 | 134 | 4.8 | 12.9 | 0.00 | 0.53 | 0.00 | 89 | 1005.1 |
| 20260506140003 | 13 | 130 | 4.8 | 11.3 | 0.00 | 0.53 | 0.00 | 90 | 1005.1 |
| 20260506135403 | 13 | 164 | 4.8 | 11.3 | 0.00 | 0.53 | 0.00 | 90 | 1005.1 |
| 20260506134503 | 13 | 168 | 4.8 | 9.7 | 0.00 | 0.53 | 0.00 | 90 | 1005.1 |
| 20260506133604 | 13 | 140 | 4.8 | 9.7 | 0.00 | 0.53 | 0.00 | 89 | 1005.1 |
| 20260506132703 | 13 | 125 | 4.8 | 8.0 | 0.00 | 0.53 | 0.00 | 90 | 1005.1 |
| 20260506131804 | 13 | 111 | 3.2 | 8.0 | 0.00 | 0.53 | 0.00 | 89 | 1005.1 |
| 20260506130905 | 13 | 92 | 1.6 | 6.4 | 0.00 | 0.53 | 0.00 | 90 | 1005.1 |
| 20260506130004 | 13 | 83 | 1.6 | 6.4 | 0.00 | 0.53 | 0.00 | 90 | 1005.1 |
| 20260506125403 | 13 | 84 | 1.6 | 6.4 | 0.00 | 0.53 | 0.00 | 90 | 1005.1 |
| 20260506124503 | 12 | 119 | 3.2 | 6.4 | 0.00 | 0.53 | 0.00 | 90 | 1005.1 |
| 20260506123603 | 12 | 160 | 3.2 | 6.4 | 0.00 | 0.53 | 0.00 | 91 | 1005.1 |
| 20260506122724 | 12 | 87 | 3.2 | 8.0 | 0.00 | 0.53 | 0.00 | 92 | 1005.1 |
| 20260506121803 | 12 | 96 | 3.2 | 9.7 | 0.00 | 0.53 | 0.00 | 92 | 1005.1 |
| 20260506120904 | 12 | 100 | 4.8 | 9.7 | 0.00 | 0.53 | 0.00 | 92 | 1005.1 |
| 20260506120004 | 11 | 103 | 4.8 | 11.3 | 0.00 | 0.53 | 0.00 | 93 | 1005.1 |
| 20260506115404 | 11 | 116 | 4.8 | 8.0 | 0.00 | 0.53 | 0.00 | 93 | 1005.1 |
| 20260506114503 | 11 | 153 | 4.8 | 9.7 | 0.00 | 0.53 | 0.00 | 93 | 1005.1 |
| 20260506113603 | 11 | 132 | 4.8 | 11.3 | 0.00 | 0.53 | 0.00 | 93 | 1005.1 |
| 20260506112703 | 11 | 87 | 3.2 | 9.7 | 0.00 | 0.53 | 0.00 | 93 | 1005.1 |
| 20260506111803 | 11 | 106 | 4.8 | 9.7 | 0.00 | 0.53 | 0.00 | 93 | 1005.1 |
| 20260506110924 | 11 | 124 | 3.2 | 6.4 | 0.00 | 0.53 | 0.00 | 94 | 1005.1 |
| 20260506110004 | 11 | 111 | 1.6 | 6.4 | 0.00 | 0.53 | 0.00 | 94 | 1005.1 |
| 20260506105425 | 11 | 80 | 0.0 | 4.8 | 0.00 | 0.53 | 0.00 | 94 | 1005.1 |
| 20260506104504 | 11 | 106 | 3.2 | 8.0 | 0.00 | 0.53 | 0.00 | 94 | 1005.1 |
| 20260506103603 | 11 | 107 | 4.8 | 11.3 | 0.00 | 0.53 | 0.00 | 93 | 1005.1 |
| 20260506102704 | 11 | 151 | 3.2 | 8.0 | 0.00 | 0.53 | 0.00 | 93 | 1005.1 |
| 20260506101824 | 11 | 121 | 1.6 | 6.4 | 0.00 | 0.53 | 0.00 | 93 | 1005.1 |
| 20260506100903 | 11 | 89 | 3.2 | 9.7 | 0.00 | 0.53 | 0.00 | 93 | 1005.1 |
| 20260506100003 | 11 | 98 | 1.6 | 8.0 | 0.00 | 0.53 | 0.00 | 92 | 1005.1 |
| 20260506095403 | 11 | 114 | 3.2 | 8.0 | 0.00 | 0.53 | 0.00 | 92 | 1005.1 |
| 20260506094503 | 11 | 122 | 3.2 | 6.4 | 0.00 | 0.53 | 0.00 | 93 | 1005.1 |
| 20260506093603 | 11 | 192 | 1.6 | 3.2 | 0.00 | 0.53 | 0.00 | 95 | 1005.1 |
| 20260506092703 | 11 | 261 | 1.6 | 4.8 | 0.00 | 0.53 | 0.00 | 94 | 1005.1 |
| 20260506091825 | 11 | 156 | 1.6 | 4.8 | 0.00 | 0.53 | 0.00 | 92 | 1005.1 |
| 20260506090924 | 11 | 204 | 3.2 | 6.4 | 0.00 | 0.53 | 0.00 | 93 | 1005.1 |
| 20260506090004 | 11 | 174 | 3.2 | 6.4 | 0.00 | 0.53 | 0.00 | 94 | 1005.1 |
| 20260506085403 | 11 | 138 | 3.2 | 8.0 | 0.00 | 0.53 | 0.00 | 95 | 1005.1 |
| 20260506084503 | 11 | 98 | 3.2 | 8.0 | 0.00 | 0.53 | 0.00 | 95 | 1005.1 |
| 20260506083603 | 11 | 93 | 1.6 | 8.0 | 0.00 | 0.53 | 0.00 | 95 | 1005.1 |
| 20260506082703 | 11 | 326 | 1.6 | 6.4 | 0.00 | 0.53 | 0.00 | 95 | 1005.1 |
| 20260506081803 | 11 | 117 | 3.2 | 6.4 | 0.00 | 0.53 | 0.00 | 95 | 1005.1 |
| 20260506080903 | 11 | 51 | 1.6 | 4.8 | 0.00 | 0.53 | 0.00 | 95 | 1005.1 |
| 20260506072703 | 11 | 141 | 1.6 | 4.8 | 0.00 | 0.53 | 0.00 | 95 | 1005.1 |
| 20260506071803 | 11 | 322 | 1.6 | 3.2 | 0.00 | 0.53 | 0.00 | 94 | 1005.1 |
| 20260506070903 | 11 | 208 | 0.0 | 4.8 | 0.00 | 0.53 | 0.00 | 93 | 1005.1 |